Temperature
32 32 31 32 33 33 33 33 32 33 34 34 33 32 32 32 32 31 31 30 29 28 27 26 25 24 23 22 21 21 21 20 20 20 20 20 20 20 20 20 19 19 19 19
32 32 33 34 34 33 33 33 33 33 35 34 33 33 32 33 32 31 31 30 29 28 27 26 25 24 23 22 21 21 21 20 20 20 20 20 20 20 20 20 19 19 19 19
32 33 34 34 34 33 33 33 33 33 34 34 33 32 32 32 31 31 31 30 29 28 27 26 25 24 23 22 21 21 21 20 20 20 20 20 20 20 20 19 19 19 19 19
33 34 34 34 33 33 33 34 34 34 33 32 32 31 31 31 31 31 30 30 30 29 28 26 25 24 23 22 22 21 21 21 20 20 20 20 20 19 19 19 19 19 19 19
32 34 34 33 34 34 33 34 34 34 33 32 32 31 31 32 30 31 31 31 30 29 28 27 25 24 23 23 22 21 21 20 20 20 20 20 20 19 19 19 19 19 19 19
33 34 34 34 34 34 34 34 33 33 32 30 31 31 30 31 32 32 31 31 30 29 28 27 25 24 23 23 22 21 21 21 20 20 20 20 19 19 19 19 19 19 19 19
32 33 34 34 33 34 34 32 30 30 30 29 31 31 31 32 33 33 32 31 30 29 28 27 26 24 24 23 22 21 21 20 20 20 20 19 19 19 19 19 19 19 19 19
31 31 33 34 33 33 33 32 30 29 29 30 30 31 32 33 33 33 32 31 30 29 28 27 26 25 24 23 22 21 21 20 20 20 20 19 19 19 19 19 19 19 18 19
32 31 34 34 34 34 32 32 33 31 31 30 30 30 31 33 33 33 32 31 30 29 28 27 26 25 24 23 22 22 21 20 20 20 20 19 19 19 19 19 19 19 18 18
32 31 33 34 34 34 34 33 33 31 29 29 29 30 30 31 32 32 32 31 30 29 28 27 26 25 24 23 23 22 21 21 20 20 19 19 19 19 19 19 19 19 19 18
33 31 32 33 32 32 33 32 32 32 31 29 28 29 32 31 32 32 31 30 29 29 28 27 26 25 24 23 23 22 21 20 20 20 19 19 19 19 19 19 18 18 18 18
32 31 31 32 33 33 33 33 32 31 30 30 29 30 33 32 32 32 31 30 29 28 28 27 26 25 24 24 23 22 21 20 20 20 19 19 19 19 18 18 18 18 18 18
31 30 29 30 31 32 32 33 33 33 32 31 30 30 32 32 32 31 30 29 28 27 27 26 26 25 24 24 23 22 21 21 20 19 19 19 19 18 18 18 18 18 18 18
31 30 30 29 30 31 31 31 32 32 31 31 30 30 30 31 31 30 29 28 27 27 26 26 25 25 24 23 23 22 21 21 20 20 19 19 18 18 18 18 18 18 17 17
31 30 30 31 31 31 31 32 32 32 31 31 30 30 30 30 30 29 29 28 27 26 26 25 24 24 23 23 22 22 21 21 20 20 19 19 19 18 18 18 18 17 17 17
31 30 30 30 31 32 31 32 32 32 32 31 31 30 30 30 29 28 28 27 27 26 25 24 23 23 22 22 22 21 21 20 20 19 19 19 18 18 18 17 17 17 17 17
30 29 28 29 30 30 30 31 32 31 32 31 30 30 30 29 29 28 28 27 26 25 25 24 23 22 22 21 21 21 20 20 20 19 19 18 18 18 18 17 17 17 17 17
29 28 28 28 28 27 30 32 32 31 31 31 30 30 30 29 27 27 27 26 25 25 24 23 22 21 21 21 20 20 20 20 19 19 18 18 18 18 17 17 17 17 16 16
30 28 28 28 27 28 30 31 31 30 29 30 30 29 29 28 27 26 25 25 24 24 23 22 22 21 20 20 20 19 19 19 18 18 18 18 18 17 17 17 17 16 16 16
30 29 28 27 26 27 28 30 30 29 28 29 29 28 27 27 26 25 24 24 23 23 22 21 21 21 20 20 19 19 18 18 18 18 18 17 17 17 17 17 16 16 16 16
28 27 27 27 27 27 28 29 29 27 26 27 27 27 26 25 25 24 24 23 22 22 21 21 20 20 19 19 19 18 18 18 18 18 17 17 17 17 16 16 16 16 16 15
27 27 26 26 26 25 27 28 27 26 26 26 26 25 24 24 23 23 23 22 21 21 21 20 20 19 19 19 18 18 18 17 17 17 17 17 16 16 16 16 16 15 15 15
27 26 26 26 25 25 26 26 26 25 25 25 24 24 23 23 22 22 22 22 21 21 20 20 19 19 18 18 18 18 17 17 17 17 17 17 16 16 16 16 15 15 15 15
26 26 26 25 25 26 25 25 25 24 25 24 24 24 23 23 22 22 22 21 20 20 20 19 19 18 18 18 18 17 17 17 17 16 16 16 16 16 16 16 15 15 15 15
24 25 24 24 24 25 24 24 23 23 23 23 23 23 23 22 22 21 21 20 19 19 19 19 18 18 17 17 17 17 17 17 16 16 16 16 16 16 16 16 15 15 15 15
25 24 24 23 23 23 23 23 23 22 22 22 22 22 22 21 21 20 20 19 19 19 18 18 18 17 17 17 17 16 16 16 16 16 16 16 16 16 16 15 15 15 15 15
Wind_Speed
12 11 11 10 11 10 8 6 4 4 4 3 3 5 6 7 8 8 10 10 11 11 12 11 10 11 11 9 8 6 5 5 3 2 2 3 2 2 2 3 3 3 2 2
12 13 12 11 10 10 10 7 6 4 3 3 3 4 7 8 8 7 9 11 11 12 12 11 10 10 11 10 8 7 6 5 4 3 2 2 2 2 3 2 3 3 2 1
13 10 9 11 11 11 9 8 8 6 4 5 6 6 6 6 6 6 8 9 10 10 13 13 11 10 10 9 9 7 6 5 4 3 3 2 2 1 2 3 3 2 2 1
13 12 10 10 9 9 9 8 8 8 8 6 7 5 7 9 9 8 8 10 12 11 12 13 12 10 10 10 9 7 6 5 4 3 3 3 3 2 2 1 2 2 2 1
12 10 10 10 8 10 9 10 10 10 10 8 8 7 5 9 10 11 10 11 13 13 13 13 13 11 10 10 10 8 7 5 4 4 3 2 2 2 1 2 2 2 1 1
14 12 11 10 9 11 10 10 10 9 8 9 9 8 4 6 9 11 12 11 11 12 13 13 12 11 10 10 10 10 8 6 5 5 4 3 2 2 2 1 1 2 1 1
13 13 11 9 10 10 11 9 7 7 6 8 8 7 5 6 6 7 10 11 11 12 12 13 13 12 11 10 10 10 9 7 6 5 4 3 3 2 2 1 1 1 1 1
11 11 12 10 10 10 10 10 8 7 7 6 5 5 3 5 6 5 8 10 10 12 12 13 13 12 11 11 10 10 10 8 7 6 4 3 2 2 1 1 1 0 1 1
8 10 11 11 10 11 10 10 11 10 11 9 5 3 4 6 7 7 8 10 10 11 12 12 12 12 11 11 10 10 10 9 8 7 5 4 3 2 1 2 1 1 1 1
12 10 10 8 7 11 11 11 8 8 7 8 7 6 4 7 7 7 8 8 9 10 11 11 11 10 10 10 10 9 10 8 7 7 6 5 4 3 2 2 2 2 1 2
13 11 10 8 8 11 11 11 9 8 8 7 7 4 3 7 8 8 8 7 8 9 9 10 11 10 11 10 10 9 9 8 7 6 5 4 4 3 3 2 2 2 1 1
9 9 10 10 9 11 12 12 12 8 8 8 7 5 1 5 6 8 9 8 7 7 8 9 10 10 10 10 10 9 8 8 7 6 6 4 4 3 3 2 2 2 2 1
5 7 8 10 9 9 9 11 13 11 10 8 8 5 4 6 6 8 10 9 7 6 7 8 8 9 8 8 8 9 8 8 8 7 6 4 4 3 3 3 2 2 2 1
5 10 11 11 8 7 10 12 12 11 9 9 7 3 4 5 7 8 9 10 8 7 7 7 6 7 7 7 7 7 7 6 7 6 6 4 3 3 3 2 2 2 2 2
8 12 12 13 12 12 12 11 12 12 11 10 7 4 4 4 7 8 8 9 9 8 8 7 6 6 6 6 6 6 5 5 5 5 4 4 3 2 2 2 2 3 3 3
9 11 12 14 14 14 14 13 12 12 10 9 7 4 2 3 6 7 7 7 7 7 7 7 7 6 5 5 4 5 5 4 5 4 4 3 3 2 2 3 3 3 3 3
10 10 12 13 12 14 14 12 11 10 10 8 5 2 4 4 4 6 6 6 6 6 6 7 6 5 5 4 4 3 3 4 4 4 4 3 3 3 3 3 2 3 3 2
10 9 9 12 13 16 11 8 7 7 6 4 1 2 3 6 6 5 5 6 6 6 6 6 6 5 4 4 3 2 3 3 4 4 3 3 3 3 3 3 3 3 2 2
11 8 9 10 13 14 10 6 5 5 5 2 1 2 3 5 6 5 5 4 5 6 6 5 4 4 4 3 3 3 2 2 3 3 3 3 3 3 3 3 3 3 3 3
12 8 9 10 12 12 7 4 4 5 4 2 4 4 3 3 2 3 5 4 6 7 6 4 3 4 4 4 3 2 2 2 2 2 2 2 2 3 4 4 3 3 3 4
11 10 12 13 13 8 5 5 4 5 1 4 4 3 2 3 2 3 4 5 5 6 6 4 4 4 3 3 3 2 1 1 1 1 2 2 3 4 4 3 2 3 4 4
9 9 10 11 13 6 6 4 2 2 2 4 5 4 5 6 4 2 4 5 4 5 5 4 3 3 3 3 3 2 1 1 1 2 2 3 3 4 3 2 3 4 5 5
5 5 5 3 2 1 3 3 3 2 2 4 3 3 5 5 2 1 3 4 3 3 3 2 2 2 2 2 2 2 1 0 1 2 3 3 4 4 4 4 4 4 4 4
5 6 5 3 3 3 3 4 4 4 3 3 2 2 3 3 3 2 2 3 2 2 1 0 1 1 0 1 1 1 1 0 1 2 3 3 4 4 4 4 5 5 5 5
6 6 5 4 4 4 3 3 3 3 3 2 3 2 2 1 1 2 1 2 1 1 1 0 0 1 1 1 1 1 0 0 2 3 3 4 4 4 4 4 4 5 4 5
7 6 6 4 2 2 3 2 3 3 2 2 2 3 2 1 1 1 1 0 0 0 1 1 1 1 1 1 1 1 0 1 2 3 4 4 3 3 3 4 3 2 4 5
Wind_Direction
233 234 240 241 237 246 253 257 251 245 239 218 205 168 174 181 174 170 164 161 161 160 153 151 153 148 143 140 141 143 147 139 142 149 167 164 164 166 143 127 115 117 124 140
237 238 244 250 253 254 257 262 259 237 231 251 241 195 185 181 176 175 175 168 165 159 153 153 156 151 150 151 151 151 152 147 147 154 169 169 156 160 127 113 118 126 150 175
239 243 241 249 251 251 256 257 260 261 252 257 262 226 181 177 175 185 191 170 165 167 159 157 157 153 152 153 156 153 145 147 153 170 166 152 138 138 132 148 137 145 156 149
246 247 247 247 252 260 267 269 266 262 253 252 247 247 184 184 174 188 201 180 167 169 164 158 157 157 156 154 149 137 139 143 152 166 163 167 157 157 160 139 126 150 156 151
247 250 248 247 252 265 269 278 273 269 264 264 257 261 201 179 177 185 196 191 169 167 161 158 158 158 160 156 150 144 137 142 149 156 160 166 152 145 122 112 121 150 151 159
255 250 248 252 252 260 265 268 268 264 263 258 251 252 225 199 189 183 180 183 166 161 157 154 152 153 156 154 152 150 145 150 154 156 152 147 143 136 127 135 164 198 168 165
248 252 248 246 251 248 252 260 267 264 257 253 246 241 218 178 178 176 165 162 158 155 154 153 151 153 157 160 157 151 150 155 159 162 159 157 164 169 184 194 181 227 158 123
237 246 239 235 245 256 249 250 255 267 266 262 236 241 180 142 138 141 141 146 153 159 158 157 156 154 157 158 157 154 154 158 164 163 157 156 175 194 166 136 143 310 64 105
246 246 239 228 236 247 255 256 264 267 276 278 255 206 165 145 146 149 141 144 158 163 157 154 154 155 158 160 160 158 154 159 164 166 162 162 169 162 137 146 185 120 88 132
262 271 251 228 233 248 253 262 273 266 269 277 277 251 203 161 156 155 145 147 153 158 154 149 150 150 151 158 157 157 155 159 160 165 174 167 165 167 167 144 100 68 58 47
256 264 259 239 226 245 251 251 259 274 279 275 271 275 165 154 157 154 143 143 148 153 153 153 151 151 150 149 150 151 150 156 160 161 159 152 158 166 163 148 142 127 105 114
246 259 263 253 256 258 255 257 255 253 258 262 268 274 163 145 136 136 130 127 128 146 147 147 149 149 153 156 155 151 150 155 154 152 152 156 154 161 172 162 148 141 148 159
264 257 258 257 249 246 254 261 266 266 263 260 259 235 143 135 126 126 124 121 121 133 130 128 135 144 148 149 149 150 156 158 154 150 153 158 169 178 183 172 167 161 157 173
260 256 259 259 262 263 248 256 264 269 268 269 262 229 176 167 141 122 122 129 135 130 124 127 126 130 137 137 134 140 151 152 153 154 157 159 179 188 191 178 172 179 180 197
248 256 263 271 272 266 260 252 252 254 261 268 268 246 213 167 120 120 129 133 133 135 133 129 123 111 116 125 133 137 142 143 144 144 151 158 166 170 183 189 197 200 203 214
245 267 272 272 271 271 270 265 258 259 262 260 261 265 142 113 105 121 128 129 135 135 134 127 121 119 116 111 122 130 134 135 137 148 158 160 165 180 194 209 218 218 220 226
247 252 268 272 272 274 264 264 265 268 271 270 261 201 141 137 133 142 139 136 138 136 131 126 125 121 119 116 115 115 129 139 145 154 162 172 184 192 199 218 214 226 233 230
246 254 256 264 270 264 267 276 274 269 278 295 232 174 155 126 110 102 117 127 131 128 122 126 131 129 135 132 122 113 124 138 152 161 172 179 191 201 207 213 216 221 225 228
245 240 250 261 263 263 268 285 298 288 276 297 189 128 117 110 113 101 83 100 116 113 109 108 118 124 124 124 118 127 137 144 156 178 196 194 193 208 217 220 221 216 218 229
238 230 239 249 259 264 285 310 322 278 264 48 97 99 109 128 184 126 96 82 100 107 106 105 114 108 104 107 128 145 150 158 182 199 207 205 205 223 226 225 225 226 226 233
232 232 238 250 254 257 296 302 272 261 344 46 78 90 75 63 63 87 103 95 95 96 96 94 103 116 121 134 146 153 148 174 211 216 217 211 209 228 225 223 222 222 228 237
244 245 241 248 253 261 343 330 338 43 33 48 62 65 77 79 83 91 99 98 102 101 97 94 97 113 128 140 148 148 159 197 232 242 231 225 216 231 232 209 229 230 228 230
262 275 275 272 273 52 22 13 13 20 65 77 93 106 104 110 119 131 103 101 99 102 92 83 106 118 129 144 151 170 171 256 268 273 255 242 233 219 216 219 231 234 230 228
275 296 286 293 289 325 21 34 15 354 30 56 88 125 138 146 157 135 97 88 84 88 99 50 64 71 95 127 155 175 163 199 274 273 272 254 238 220 207 211 216 225 236 235
291 281 267 264 289 310 356 13 347 357 4 18 22 13 46 71 103 102 106 107 118 101 65 8 347 328 324 47 10 339 4 248 271 270 275 269 250 232 212 217 228 229 234 234
281 286 276 267 281 295 311 314 2 3 327 342 13 340 349 22 51 50 81 63 251 124 4 315 302 304 305 312 298 334 332 255 273 274 276 275 271 248 219 216 236 248 235 226
Height
1472 1474 1475 1469 1465 1466 1466 1470 1473 1468 1457 1460 1465 1468 1469 1470 1474 1477 1481 1485 1489 1493 1497 1500 1503 1505 1507 1509 1510 1511 1513 1514 1515 1516 1517 1518 1519 1521 1521 1522 1522 1522 1523 1524
1470 1471 1464 1461 1460 1462 1463 1469 1469 1463 1456 1460 1464 1466 1466 1467 1471 1476 1478 1482 1486 1491 1495 1498 1502 1504 1506 1508 1509 1510 1512 1513 1514 1515 1516 1517 1519 1520 1521 1522 1522 1522 1523 1524
1470 1463 1458 1459 1460 1463 1463 1467 1467 1465 1460 1459 1465 1470 1467 1468 1470 1475 1477 1480 1484 1488 1492 1496 1500 1503 1505 1507 1508 1510 1511 1512 1513 1514 1516 1517 1518 1520 1521 1522 1522 1522 1523 1524
1464 1457 1457 1459 1461 1461 1467 1456 1457 1459 1467 1472 1469 1484 1471 1466 1468 1471 1475 1477 1481 1486 1490 1494 1498 1501 1504 1506 1507 1508 1510 1511 1512 1514 1515 1517 1518 1519 1520 1521 1522 1522 1523 1523
1463 1456 1457 1460 1458 1458 1460 1454 1455 1457 1464 1471 1469 1478 1472 1463 1470 1469 1471 1474 1477 1482 1486 1491 1495 1499 1502 1504 1506 1507 1509 1510 1512 1513 1515 1516 1518 1519 1520 1521 1521 1522 1522 1522
1456 1453 1453 1454 1453 1454 1454 1455 1456 1458 1465 1486 1475 1479 1478 1464 1463 1463 1466 1470 1475 1480 1484 1489 1493 1497 1500 1503 1505 1506 1508 1509 1511 1513 1514 1515 1517 1518 1519 1520 1521 1521 1522 1522
1461 1454 1450 1451 1456 1455 1455 1466 1484 1489 1490 1488 1467 1472 1470 1455 1453 1456 1461 1467 1472 1478 1483 1488 1492 1495 1498 1501 1504 1505 1507 1508 1510 1512 1513 1515 1516 1518 1519 1519 1520 1521 1521 1521
1470 1469 1452 1450 1455 1458 1456 1463 1486 1499 1496 1484 1470 1473 1461 1449 1452 1456 1460 1465 1471 1476 1481 1486 1490 1494 1497 1500 1502 1504 1505 1507 1509 1511 1512 1514 1515 1517 1518 1519 1519 1520 1520 1520
1463 1465 1446 1446 1448 1452 1459 1459 1455 1470 1475 1484 1478 1467 1457 1450 1453 1456 1460 1465 1471 1475 1479 1484 1488 1492 1496 1498 1501 1503 1505 1506 1508 1510 1512 1513 1514 1515 1517 1517 1518 1519 1519 1520
1453 1462 1448 1443 1446 1447 1449 1452 1458 1469 1486 1494 1486 1476 1468 1458 1457 1457 1460 1465 1470 1474 1478 1483 1487 1491 1494 1497 1500 1502 1504 1505 1507 1509 1511 1512 1513 1514 1515 1516 1517 1517 1518 1518
1450 1460 1456 1448 1454 1457 1454 1456 1459 1462 1466 1485 1496 1482 1450 1453 1453 1456 1460 1465 1470 1474 1478 1482 1486 1490 1493 1496 1499 1501 1503 1505 1507 1508 1510 1511 1512 1513 1514 1515 1516 1516 1517 1517
1449 1455 1462 1454 1445 1444 1447 1450 1454 1469 1473 1470 1480 1477 1445 1449 1451 1455 1460 1465 1470 1474 1477 1481 1485 1489 1492 1495 1498 1500 1502 1504 1506 1507 1508 1510 1511 1512 1513 1513 1514 1515 1515 1515
1452 1460 1473 1470 1460 1450 1449 1447 1447 1449 1456 1466 1476 1472 1446 1451 1455 1458 1462 1467 1471 1475 1477 1481 1484 1487 1491 1494 1497 1499 1501 1503 1505 1506 1507 1509 1510 1510 1511 1512 1512 1513 1513 1514
1454 1458 1467 1474 1465 1455 1456 1451 1448 1453 1461 1464 1464 1463 1454 1453 1455 1460 1464 1469 1473 1475 1478 1481 1484 1487 1490 1493 1495 1498 1500 1502 1504 1505 1506 1507 1508 1509 1509 1510 1511 1511 1511 1511
1452 1458 1456 1453 1449 1449 1449 1448 1447 1450 1452 1459 1459 1459 1455 1454 1456 1461 1466 1470 1473 1476 1479 1482 1485 1487 1489 1492 1495 1497 1499 1501 1502 1503 1504 1505 1506 1507 1508 1508 1509 1509 1509 1510
1451 1457 1456 1457 1448 1446 1447 1443 1443 1444 1445 1449 1452 1454 1451 1454 1459 1464 1467 1471 1474 1477 1480 1483 1485 1487 1490 1492 1494 1496 1497 1499 1501 1502 1503 1504 1504 1505 1506 1506 1506 1507 1507 1507
1451 1457 1464 1464 1452 1452 1456 1444 1443 1444 1442 1446 1454 1454 1452 1457 1460 1464 1467 1471 1474 1478 1480 1483 1485 1488 1490 1491 1493 1494 1496 1497 1499 1500 1501 1502 1502 1503 1503 1504 1504 1504 1504 1504
1452 1457 1460 1462 1464 1476 1451 1434 1436 1441 1442 1443 1446 1450 1453 1458 1462 1465 1468 1471 1474 1477 1480 1482 1484 1487 1489 1490 1491 1493 1494 1496 1497 1498 1499 1499 1500 1501 1501 1501 1501 1502 1502 1502
1446 1453 1461 1464 1467 1460 1445 1439 1440 1446 1448 1446 1448 1451 1455 1458 1462 1467 1470 1472 1475 1477 1479 1482 1483 1485 1487 1489 1490 1491 1493 1494 1494 1495 1496 1497 1497 1498 1498 1498 1498 1499 1499 1499
1444 1448 1459 1462 1471 1471 1455 1442 1442 1446 1454 1449 1450 1454 1456 1459 1465 1469 1472 1474 1475 1478 1480 1481 1482 1484 1486 1487 1489 1490 1491 1491 1492 1493 1493 1494 1494 1495 1495 1495 1495 1496 1496 1496
1451 1453 1458 1461 1464 1457 1448 1445 1445 1460 1463 1454 1454 1457 1460 1462 1467 1471 1472 1474 1476 1478 1480 1481 1482 1483 1485 1486 1487 1488 1489 1489 1490 1490 1491 1491 1491 1492 1492 1492 1492 1493 1493 1493
1450 1454 1457 1458 1464 1466 1450 1449 1452 1458 1457 1456 1458 1461 1463 1465 1468 1472 1473 1474 1476 1478 1479 1481 1482 1482 1483 1484 1485 1486 1486 1487 1487 1488 1488 1488 1488 1489 1489 1489 1489 1490 1490 1490
1447 1450 1451 1455 1460 1456 1454 1454 1455 1457 1457 1459 1461 1464 1465 1468 1470 1472 1474 1475 1477 1478 1479 1481 1482 1482 1482 1483 1484 1484 1485 1485 1485 1485 1485 1485 1485 1485 1485 1486 1486 1486 1486 1487
1449 1450 1451 1455 1454 1454 1455 1456 1458 1459 1460 1461 1463 1464 1466 1468 1470 1471 1473 1474 1477 1478 1479 1480 1481 1481 1481 1481 1482 1482 1483 1483 1482 1482 1482 1481 1481 1481 1482 1482 1482 1482 1482 1482
1454 1452 1453 1456 1456 1456 1457 1459 1460 1461 1463 1463 1464 1465 1466 1468 1470 1471 1472 1474 1476 1477 1478 1479 1479 1480 1480 1480 1480 1480 1480 1480 1479 1479 1479 1478 1478 1478 1478 1479 1479 1479 1479 1479
1454 1454 1455 1457 1458 1459 1460 1461 1461 1463 1464 1464 1465 1466 1467 1468 1470 1471 1472 1473 1474 1475 1476 1477 1477 1477 1478 1478 1477 1477 1477 1477 1476 1476 1476 1476 1475 1475 1475 1475 1475 1476 1476 1476